N1SU-13 Weather Reports


time (UTC)temp
F
wind
direction
speed
knots
gust
knots
rain 1hr
in
rain 24hr
in
rain mn
in
humidity
%
barometer
mb
20260906142800 48 0.0 0.0 0.00 0.00 0.00 93 1015.5
20260906141718 48 0.0 0.0 0.00 0.00 0.00 94 1015.4
20260906140641 48 0.0 0.0 0.00 0.00 0.00 93 1015.4
20260906135725 48 0.0 0.0 0.00 0.00 0.00 94 1015.5
20260906134650 48 0.0 0.0 0.00 0.00 0.00 94 1015.5
20260906133546 48 0.0 0.0 0.00 0.00 0.00 94 1015.4
20260906132553 48 0.0 0.0 0.00 0.00 0.00 94 1015.4
20260906131525 48 0.0 0.0 0.00 0.00 0.00 94 1015.2
20260906130534 48 0.0 0.0 0.00 0.00 0.00 94 1015.4
20260906125449 48 0.0 0.0 0.00 0.00 0.00 93 1015.4
20260906124416 48 0.0 0.0 0.00 0.00 0.00 93 1015.3
20260906123448 48 0.0 0.0 0.00 0.00 0.00 92 1015.3
20260906121324 49 0.0 0.0 0.00 0.00 0.00 92 1015.3
20260906120350 49 0.0 0.0 0.00 0.00 0.00 92 1015.4
20260906115350 49 0.0 0.0 0.00 0.00 0.00 92 1015.4
20260906114235 49 0.0 0.0 0.00 0.00 0.00 91 1015.5
20260906113157 49 0.0 0.0 0.00 0.00 0.00 91 1015.5
20260906112119 49 0.0 0.0 0.00 0.00 0.00 90 1015.4
20260906111120 50 0.0 0.0 0.00 0.00 0.00 91 1015.4
20260906110307 50 0.0 0.0 0.00 0.00 0.00 91 1015.4
20260906110133 50 0.0 0.0 0.00 0.00 0.00 91 1015.5
20260906105125 50 0.0 0.0 0.00 0.00 0.00 90 1015.6
20260906104128 50 0.0 0.0 0.00 0.00 0.00 90 1015.4
20260906103040 50 0.0 0.0 0.00 0.00 0.00 90 1015.5
20260906102116 50 0.0 0.0 0.00 0.00 0.00 90 1015.6
20260906101018 50 0.0 0.0 0.00 0.00 0.00 90 1015.6
20260906100006 51 0.0 0.0 0.00 0.00 0.00 89 1015.5
20260906095043 51 0.0 0.0 0.00 0.00 0.00 89 1015.5
20260906093920 51 0.0 0.0 0.00 0.00 0.00 89 1015.3
20260906092955 51 0.0 0.0 0.00 0.00 0.00 89 1015.3
20260906092000 51 0.0 0.0 0.00 0.00 0.00 88 1015.2
20260906090854 51 0.0 0.0 0.00 0.00 0.00 87 1015.2
20260906085840 51 0.0 0.0 0.00 0.00 0.00 87 1015.2
20260906084800 52 0.0 0.0 0.00 0.00 0.00 87 1015.2
20260906083623 52 0.0 0.0 0.00 0.00 0.00 86 1015.4
20260906082630 52 0.0 0.0 0.00 0.00 0.00 87 1015.5
20260906081450 52 0.0 0.0 0.00 0.00 0.00 86 1015.4
20260906080430 52 0.0 0.0 0.00 0.00 0.00 86 1015.4
20260906075330 52 0.0 0.0 0.00 0.00 0.00 85 1015.5
20260906074154 53 0.0 0.0 0.00 0.00 0.00 84 1015.6
20260906073203 53 0.0 0.0 0.00 0.00 0.00 84 1015.5
20260906072143 53 0.0 0.0 0.00 0.00 0.00 84 1015.5
20260906071001 53 0.0 0.0 0.00 0.00 0.00 83 1015.7
20260906065926 53 0.0 0.0 0.00 0.00 0.00 82 1015.7
20260906064941 54 0.0 0.0 0.00 0.00 0.00 82 1015.7
20260906063823 54 0.0 0.0 0.00 0.00 0.00 81 1015.6
20260906062858 54 0.0 0.0 0.00 0.00 0.00 81 1015.6
20260906061802 54 0.0 0.0 0.00 0.00 0.00 80 1015.7
20260906060817 55 0.0 0.0 0.00 0.00 0.00 79 1015.7
20260906055840 55 0.0 0.0 0.00 0.00 0.00 79 1015.7
20260906054819 55 0.0 0.0 0.00 0.00 0.00 79 1015.7
20260906053807 55 0.0 0.0 0.00 0.00 0.00 78 1015.8
20260906052734 55 0.0 0.0 0.00 0.00 0.00 78 1015.7
20260906051642 56 0.0 0.0 0.00 0.00 0.00 78 1015.8
20260906050709 56 0.0 0.0 0.00 0.00 0.00 78 1015.9
20260906045709 56 0.0 0.0 0.00 0.00 0.00 78 1015.9
20260906044708 56 0.0 0.0 0.00 0.00 0.00 77 1015.9
20260906043621 57 0.0 0.0 0.00 0.00 0.00 76 1016.0
20260906042526 57 0.0 0.0 0.00 0.00 0.00 76 1016.0
20260906041534 57 0.0 0.0 0.00 0.00 0.00 75 1015.9
20260906040404 58 0.0 0.0 0.00 0.00 0.00 75 1016.0
20260906035442 58 0.0 0.0 0.00 0.00 0.00 75 1016.0
20260906034504 59 0.0 0.0 0.00 0.00 0.00 75 1015.9
20260906033508 59 0.0 0.0 0.00 0.00 0.00 74 1015.8
20260906032545 60 0.0 0.0 0.00 0.00 0.00 73 1015.8
20260906031440 60 0.0 0.0 0.00 0.00 0.00 73 1015.6
20260906030417 61 0.0 0.0 0.00 0.00 0.00 72 1015.5
20260906025254 62 0.0 0.0 0.00 0.00 0.00 71 1015.5
20260906024140 63 0.0 0.0 0.00 0.00 0.00 70 1015.4
20260906022215 65 0.0 0.0 0.00 0.00 0.00 67 1015.1
20260906021229 67 0.0 0.0 0.00 0.00 0.00 63 1015.0
20260906020133 68 0.0 0.0 0.00 0.00 0.00 58 1015.0
20260906015216 70 0.0 0.0 0.00 0.00 0.00 53 1014.9
20260906014238 71 0.0 0.0 0.00 0.00 0.00 52 1014.7
20260906013157 69 0.0 0.0 0.00 0.00 0.00 57 1014.7
20260906013112 69 0.0 0.0 0.00 0.00 0.00 57 1014.7
20260906012004 68 0.0 0.0 0.00 0.00 0.00 58 1014.8
20260906011029 67 0.0 0.0 0.00 0.00 0.00 60 1014.8
20260906005929 66 0.0 0.0 0.00 0.00 0.00 62 1015.0
20260906004838 66 0.0 0.0 0.00 0.00 0.00 64 1014.9
20260906003748 65 0.0 0.0 0.00 0.00 0.00 66 1014.9
20260906002623 65 0.0 0.0 0.00 0.00 0.00 65 1014.9
20260906001646 66 0.0 0.0 0.00 0.00 0.00 65 1014.8
20260906000518 66 0.0 0.0 0.00 0.00 0.00 63 1014.6
20260905235506 66 0.0 0.0 0.00 0.00 0.00 63 1014.7
20260905234503 66 0.0 0.0 0.00 0.00 0.00 63 1014.7
20260905233417 66 0.0 0.0 0.00 0.00 0.00 61 1014.7
20260905232443 66 0.0 0.0 0.00 0.00 0.00 62 1014.7
20260905231444 66 0.0 0.0 0.00 0.00 0.00 58 1014.8
20260905230508 66 0.0 0.0 0.00 0.00 0.00 60 1014.8
20260905225419 66 0.0 0.0 0.00 0.00 0.00 60 1015.1
20260905224323 66 0.0 0.0 0.00 0.00 0.00 60 1015.2
20260905223145 66 0.0 0.0 0.00 0.00 0.00 59 1015.3
20260905222209 66 0.0 0.0 0.00 0.00 0.00 61 1015.3
20260905221231 65 0.0 0.0 0.00 0.00 0.00 59 1015.6
20260905220208 65 0.0 0.0 0.00 0.00 0.00 59 1015.6
20260905215238 66 0.0 0.0 0.00 0.00 0.00 60 1015.6
20260905214124 66 0.0 0.0 0.00 0.00 0.00 60 1015.6
20260905213006 66 0.0 0.0 0.00 0.00 0.00 60 1015.7
20260905212553 65 0.0 0.0 0.00 0.00 0.00 61 1015.6
20260905212006 65 0.0 0.0 0.00 0.00 0.00 63 1015.7
20260905211842 64 0.0 0.0 0.00 0.00 0.00 63 1015.7
20260905211647 64 0.0 0.0 0.00 0.00 0.00 63 1015.8
20260905210909 64 0.0 0.0 0.00 0.00 0.00 64 1015.8
20260905205808 63 0.0 0.0 0.00 0.00 0.00 63 1016.1
20260905204634 63 0.0 0.0 0.00 0.00 0.00 64 1016.2
20260905203623 61 0.0 0.0 0.00 0.00 0.00 65 1016.3
20260905202610 60 0.0 0.0 0.00 0.00 0.00 67 1016.5
20260905201541 59 0.0 0.0 0.00 0.00 0.00 70 1016.5
20260905200617 59 0.0 0.0 0.00 0.00 0.00 70 1016.5
20260905195615 59 0.0 0.0 0.00 0.00 0.00 72 1016.5
20260905194600 58 0.0 0.0 0.00 0.00 0.00 72 1016.6
20260905193640 58 0.0 0.0 0.00 0.00 0.00 72 1016.7
20260905192528 58 0.0 0.0 0.00 0.00 0.00 73 1016.7
20260905191459 58 0.0 0.0 0.00 0.00 0.00 73 1016.7
20260905190433 58 0.0 0.0 0.00 0.00 0.00 74 1016.9
20260905185458 57 0.0 0.0 0.00 0.00 0.00 74 1017.0
20260905184528 57 0.0 0.0 0.00 0.00 0.00 76 1017.1
20260905183405 56 0.0 0.0 0.00 0.00 0.00 77 1017.3
20260905182414 56 0.0 0.0 0.00 0.00 0.00 80 1017.3
20260905181348 55 0.0 0.0 0.00 0.00 0.00 82 1017.4
20260905180430 55 0.0 0.0 0.00 0.00 0.00 83 1017.4
20260905175329 55 0.0 0.0 0.00 0.00 0.00 83 1017.4
20260905174359 55 0.0 0.0 0.00 0.00 0.00 84 1017.4
20260905173405 55 0.0 0.0 0.00 0.00 0.00 84 1017.2
20260905171302 54 0.0 0.0 0.00 0.00 0.00 84 1017.2
20260905170148 54 0.0 0.0 0.00 0.00 0.00 85 1017.1
20260905165020 54 0.0 0.0 0.00 0.00 0.00 85 1017.2
20260905164009 54 0.0 0.0 0.00 0.00 0.00 85 1017.1
20260905162923 53 0.0 0.0 0.00 0.00 0.00 86 1017.1
20260905161834 52 0.0 0.0 0.00 0.00 0.00 87 1017.1
20260905160657 52 0.0 0.0 0.00 0.00 0.00 88 1017.2
20260905155619 51 0.0 0.0 0.00 0.00 0.00 89 1017.1
20260905155404 51 0.0 0.0 0.00 0.00 0.00 89 1017.2
20260905154817 51 0.0 0.0 0.00 0.00 0.00 89 1017.2
20260905153853 50 0.0 0.0 0.00 0.00 0.00 90 1017.2
20260905153700 50 0.0 0.0 0.00 0.00 0.00 90 1017.3
20260905152657 50 0.0 0.0 0.00 0.00 0.00 91 1017.2
20260905152634 50 0.0 0.0 0.00 0.00 0.00 91 1017.2
20260905151547 50 0.0 0.0 0.00 0.00 0.00 92 1017.2
20260905150542 49 0.0 0.0 0.00 0.00 0.00 92 1017.1
20260905150513 49 0.0 0.0 0.00 0.00 0.00 92 1017.0
20260905150237 49 0.0 0.0 0.00 0.00 0.00 92 1017.0
20260905145916 49 0.0 0.0 0.00 0.00 0.00 92 1017.0
20260905145356 49 0.0 0.0 0.00 0.00 0.00 92 1017.0
20260905144318 49 0.0 0.0 0.00 0.00 0.00 92 1016.8